Lid_Strength_Index
1 2 2 4 7 7 9 8 5 6 6 4 4 5 6 5 8 11 1 0 0 0 -0 -1 -1 -1 -1 -1 -1 -1 -1 -1 -1 -1 -1 -1 -1 -1 -1 -1 -1 -2 -1 -1 -1 -2 -2 -2 -2
3 2 5 6 8 10 10 7 8 9 5 4 4 5 6 7 4 3 2 0 0 -0 -1 -1 -1 -1 -1 -1 -1 -1 -1 -1 -1 -1 -1 -1 -1 -1 -1 -1 -1 -2 -1 -1 -1 -1 -1 -2 -1
3 4 7 7 8 10 9 6 6 7 4 4 5 4 5 6 3 3 1 0 -0 -0 -0 -1 -1 -1 -1 -1 -1 -1 -1 -1 -1 -1 -1 -2 -2 -1 -1 -1 -1 -2 -1 -1 -1 -1 -1 -1 -1
5 6 7 9 9 7 7 5 5 5 4 4 4 7 4 2 3 1 0 0 0 -0 -0 -1 -1 -1 -1 -1 -1 -1 -1 -1 -1 -1 -1 -2 -1 -1 -1 -1 -1 -2 -2 -1 -1 -1 -1 -1 -1
4 5 9 10 9 6 6 5 5 5 5 5 4 6 6 2 1 1 0 0 0 0 -0 -1 -1 -1 -1 -1 -1 -1 -1 -1 -1 -1 -2 -2 -1 -1 -1 -1 -1 -2 -2 -1 -1 -1 -1 -1 -1
6 5 9 10 8 6 5 4 4 5 5 4 5 5 5 2 2 1 0 0 -0 0 -0 -1 -1 -1 -1 -1 -1 -1 -1 -1 -1 -1 -2 -2 -1 -1 -1 -1 -1 -1 -2 -2 -1 -1 -1 -1 -1
6 6 8 8 7 7 5 4 5 5 5 5 3 7 4 3 1 1 0 0 0 -0 -0 -0 -1 -1 -1 -1 -1 -1 -1 -1 -1 -2 -2 -2 -1 -1 -1 -1 -1 -1 -1 -2 -1 -1 -1 -1 -1
4 5 7 7 8 7 5 4 4 5 5 2 3 8 8 3 1 1 1 0 0 0 -0 -0 -1 -1 -1 -1 -1 -1 -1 -1 -2 -2 -2 -2 -1 -1 -1 -1 -1 -1 -1 -1 -2 -1 -1 -1 -1
3 6 8 7 7 6 4 5 4 3 4 3 3 6 4 3 1 1 2 1 1 1 0 -0 -0 -0 -1 -1 -1 -1 -1 -1 -1 -1 -2 -1 -1 -1 -1 -2 -2 -2 -1 -1 -1 -1 -1 -2 -1
5 7 7 5 5 5 5 5 4 4 4 4 4 3 5 2 2 2 3 2 2 1 1 0 -0 -0 -1 -1 -1 -1 -1 -1 -1 -1 -1 -1 -1 -1 -1 -2 -2 -2 -2 -1 -1 -1 -1 -1 -1
5 7 5 5 4 4 5 5 4 5 5 4 4 4 3 3 3 3 2 2 2 1 1 0 -0 -0 -0 -0 -0 -1 -1 -1 -1 -1 -1 -1 -1 -1 -1 -1 -1 -1 -1 -1 -1 -1 -1 -1 -0
6 5 4 5 4 4 5 4 5 4 4 3 3 3 3 3 3 3 2 2 2 1 1 0 -0 -0 -0 -0 -0 -0 -0 -1 -1 -1 -1 -1 -1 -1 -1 -0 -1 -0 -1 -0 -0 -0 -0 -0 -1
5 5 4 4 4 4 4 5 5 4 3 3 3 4 3 3 3 2 2 2 1 2 1 0 -0 -0 -1 -1 -0 -0 -0 -0 -1 -1 -1 -1 -1 -0 -1 -1 -1 -0 -1 -1 -0 -0 -0 -0 -1
4 4 5 5 4 4 5 5 4 4 3 3 3 3 3 3 2 2 2 2 2 1 1 0 0 -0 -0 -0 -1 -0 -1 -1 -1 -1 -1 -1 -1 -1 -0 -0 -0 -1 -1 -1 -1 -0 -0 -0 -0
4 6 5 5 4 5 4 6 6 4 3 4 3 3 3 3 2 2 1 0 1 1 1 0 0 -0 -0 -0 -1 -1 -1 -1 -1 -1 -2 -1 -1 -1 -1 -0 -0 -1 -2 -1 -1 -1 -1 0 0
6 6 8 5 5 5 5 8 5 4 4 4 3 3 3 3 2 2 2 1 0 1 1 0 0 0 0 -0 -0 -0 -1 -1 -1 -1 -1 -1 -1 -1 -1 -0 -0 -1 -1 -1 -0 0 0 0 1
6 9 8 7 5 5 6 7 5 4 4 4 4 3 3 3 2 2 2 2 1 0 1 1 -0 0 0 -0 -0 -0 -1 -0 -1 -1 -1 -1 -1 -1 -1 -0 -0 -1 -0 -0 0 0 0 1 1
9 8 8 8 6 6 6 7 5 4 4 4 4 3 3 3 3 2 2 1 1 1 1 1 0 -0 0 0 -0 -0 0 -0 -1 -0 -1 -1 -1 -1 -0 -0 -0 -1 -0 0 0 1 0 1 1
7 8 8 7 5 6 7 7 6 4 4 4 4 4 3 3 3 2 2 2 2 1 -0 1 1 0 0 1 1 1 1 1 0 -0 -1 -1 -1 -1 -0 0 -0 -0 0 0 0 1 1 1 1
7 8 8 7 6 6 7 7 6 5 5 4 4 4 3 4 3 3 2 2 1 1 -0 0 0 -0 1 1 1 1 1 0 0 -0 -0 -1 -0 -1 -0 0 0 0 0 1 1 1 2 1 1
7 8 8 8 6 6 7 8 7 5 4 4 4 3 3 3 4 3 3 2 2 2 1 0 -0 0 0 0 0 1 0 1 1 1 1 0 -0 -0 -0 -0 0 0 0 1 1 1 1 2 1
9 6 7 7 8 11 7 12 8 6 6 5 5 4 4 4 3 3 3 2 2 2 1 1 0 -0 0 -1 1 1 2 3 1 1 0 0 -0 -0 -0 -0 -0 0 0 1 1 0 1 1 3
8 6 7 7 8 9 9 10 9 6 8 7 5 5 4 4 3 3 3 2 2 1 1 1 1 1 -0 -1 -1 1 2 1 1 1 1 1 0 -0 -0 -0 0 0 0 0 1 1 1 1 2
5 7 7 7 9 12 9 10 10 8 7 7 5 5 4 4 3 3 2 2 2 1 1 1 1 1 1 1 1 0 1 1 2 2 2 1 1 1 0 0 0 0 0 0 0 0 1 1 1
6 8 12 13 13 14 9 10 9 8 6 6 6 5 4 4 3 3 3 3 2 2 1 1 1 1 1 1 1 1 1 1 1 1 2 2 2 1 1 1 1 0 0 0 0 1 1 1 1
8 9 14 20 18 13 9 12 11 7 5 5 5 4 4 4 3 3 3 2 2 2 2 1 1 1 1 1 1 1 1 1 1 1 1 1 1 1 4 1 2 1 -0 0 0 1 1 1 1
9 11 8 13 13 15 12 10 8 6 7 6 5 5 5 4 4 3 3 2 2 2 2 1 1 1 1 1 1 1 1 1 1 1 0 1 0 0 1 2 2 0 1 0 0 1 1 1 1
8 7 12 12 21 22 15 13 16 12 9 7 7 5 5 5 4 4 4 3 2 1 1 1 1 1 1 1 1 1 0 0 0 0 1 1 0 0 1 1 3 2 0 0 1 1 1 1 1
9 10 10 11 12 19 20 16 11 11 10 10 8 6 5 5 5 5 4 3 2 2 2 1 1 1 1 0 0 1 1 0 0 1 1 1 0 0 0 1 1 3 3 0 1 1 1 1 1
7 9 11 15 16 16 17 17 9 9 8 8 8 7 6 6 5 5 4 3 3 3 3 2 1 1 1 0 0 0 0 0 1 1 0 0 1 0 0 0 1 1 1 1 1 1 1 1 2